Kejimkujik, Nova Scotia

9:08 AM ADT on September 26, 2017 (GMT -0300)
Kejimkujik

Weather History for CWKG - February, 2013

Change the Weather History Date:

Wednesday, February 27, 2013

  Actual Average (CYZX) Record (CYZX)
Temperature  
Mean Temperature 30 °F -  
Max Temperature 43 °F 32 °F 59 °F (2002)
Min Temperature 16 °F 17 °F -4 °F (2003)
Degree Days  
Heating Degree Days 36    
Moisture  
Dew Point 16 °F    
Average Humidity 64    
Maximum Humidity 94    
Minimum Humidity 21    
Precipitation  
Precipitation 0.18 in - - ()
Sea Level Pressure  
Sea Level Pressure 30.19 in    
Wind  
Wind Speed 3 mph ()    
Max Wind Speed 10 mph    
Max Gust Speed 20 mph    
Averages and records for this station are not official NWS values.
T = Trace of Precipitation, MM = Missing Value Source: Averaged Metar Reports

Daily Weather History Graph

Daily Weather History Graph

Search for Another Location

Airport or City:

Trip Planner

Search our weather history database for the weather conditions in past years. The results will help you decide how hot, cold, wet, or windy it might be!

Date:

Astronomy

Feb. 27, 2013 Rise Set
Actual Time 7:01 AM AST 6:06 PM AST
Civil Twilight 6:31 AM AST 6:35 PM AST
Nautical Twilight 5:58 AM AST 7:09 PM AST
Astronomical Twilight 5:24 AM AST 7:43 PM AST
Moon 8:31 PM AST (2/27) 7:27 AM AST (2/27)
Length of Visible Light 12h 03m
Length of Day
11h 05m
Waning Gibbous, 96% of the Moon is Illuminated
Feb 27
Waning Gibbous
Mar 4
Last Quarter
Mar 11
New
Mar 19
First Quarter
Mar 27
Full

Hourly Weather History & Observations

Time (AST) Temp. Windchill Dew Point Humidity Pressure Visibility Wind Dir Wind Speed Gust Speed Precip Events Conditions
12:00 AM 24.1 °F - 18.1 °F 78% 30.32 in - WNW 1.2 mph - N/A   Unknown
1:00 AM 21.6 °F - 17.8 °F 85% 30.32 in - NE 2.3 mph - N/A   Unknown
2:00 AM 21 °F - 18 °F 81% 30.32 in - Calm Calm - -  
2:00 AM 21.0 °F - 17.6 °F 87% 30.32 in - Calm Calm - N/A   Unknown
3:00 AM 19.6 °F 14.5 °F 16.9 °F 89% 30.29 in - East 3.5 mph - N/A   Unknown
4:00 AM 18.7 °F 13.5 °F 16.3 °F 91% 30.27 in - East 3.5 mph - N/A   Unknown
5:00 AM 16.9 °F - 14.5 °F 91% 30.27 in - Calm Calm - N/A   Unknown
6:00 AM 16.3 °F - 14.4 °F 92% 30.27 in - East 2.3 mph - N/A   Unknown
7:00 AM 16.2 °F - 14.7 °F 94% 30.27 in - East 2.3 mph - N/A   Unknown
8:00 AM 18 °F - 14 °F 78% 30.27 in - SE 2.3 mph - -  
8:00 AM 18.0 °F - 14.2 °F 85% 30.27 in - SE 2.3 mph - N/A   Unknown
9:00 AM 28.8 °F - 18.3 °F 65% 30.28 in - ESE 2.3 mph - N/A   Unknown
10:00 AM 33.4 °F 29.1 °F 19.8 °F 57% 30.26 in - ESE 4.6 mph - N/A   Unknown
11:00 AM 36.3 °F 30.8 °F 18.3 °F 48% 30.22 in - SE 6.9 mph - N/A   Unknown
12:00 PM 37.6 °F 32.3 °F 17.8 °F 45% 30.18 in - SE 6.9 mph - N/A   Unknown
1:00 PM 39.6 °F 33.5 °F 15.3 °F 37% - - SE 9.2 mph - N/A   Unknown
2:00 PM 43 °F - 16 °F 21% 30.11 in - East 5.8 mph - -  
2:00 PM 42.6 °F 39.0 °F 16.0 °F 34% 30.11 in - East 5.8 mph - N/A   Unknown
3:00 PM 41.4 °F 35.7 °F 10.6 °F 28% 30.10 in - SE 9.2 mph - N/A   Unknown
4:00 PM 39.9 °F 33.4 °F 6.1 °F 25% 30.10 in - SSE 10.4 mph 19.6 mph N/A   Unknown
5:00 PM 36.7 °F 29.9 °F 9.7 °F 33% 30.09 in - SE 9.2 mph - N/A   Unknown
6:00 PM 31.8 °F 23.9 °F 10.2 °F 41% 30.08 in - SE 9.2 mph - N/A   Unknown
7:00 PM 29.1 °F 22.1 °F 10.0 °F 45% 30.08 in - SE 6.9 mph - N/A   Unknown
8:00 PM 28.6 °F 21.5 °F 16.0 °F 59% 30.07 in - SE 6.9 mph - N/A   Unknown
9:00 PM 28.8 °F 22.6 °F 20.8 °F 72% 30.04 in - SE 5.8 mph - N/A   Unknown
10:00 PM 29.5 °F 21.8 °F 22.6 °F 76% 30.03 in - SE 8.1 mph - N/A   Unknown
11:00 PM 30.2 °F 21.9 °F 25.0 °F 81% 30.00 in - SE 9.2 mph - N/A   Unknown